TimeCST,TemperatureF,Dew PointF,Humidity,Sea Level PressureIn,VisibilityMPH,Wind Direction,Wind SpeedMPH,Gust SpeedMPH,PrecipitationIn,Events,Conditions,WindDirDegrees,DateUTC
12:00 AM,23.0,19.4,86,29.98,1.5,East,6.9,-,0.00,Snow,Light Snow,90,2013-03-05 06:00:00
1:22 AM,23.0,19.4,86,29.97,0.8,East,5.8,-,0.02,Snow,Light Snow,90,2013-03-05 07:22:00
1:32 AM,24.8,21.2,86,29.97,1.0,East,5.8,-,0.02,Snow,Light Snow,100,2013-03-05 07:32:00
1:49 AM,24.8,21.2,86,29.97,1.2,East,4.6,-,0.03,Snow,Light Snow,100,2013-03-05 07:49:00
1:53 AM,24.1,21.0,88,30.04,1.5,East,6.9,-,0.03,Snow,Light Snow,90,2013-03-05 07:53:00
2:28 AM,24.8,21.2,86,29.97,0.8,East,5.8,-,0.02,Snow,Light Snow,80,2013-03-05 08:28:00
2:53 AM,24.1,21.0,88,30.04,1.0,East,5.8,-,0.03,Snow,Light Snow,80,2013-03-05 08:53:00
3:13 AM,24.8,21.2,86,29.96,1.2,East,4.6,-,0.02,Snow,Light Snow,90,2013-03-05 09:13:00
3:37 AM,24.8,21.2,86,29.96,1.0,East,4.6,-,0.03,Snow,Light Snow,90,2013-03-05 09:37:00
3:53 AM,24.1,19.9,84,30.04,1.0,East,6.9,-,0.04,Snow,Light Snow,80,2013-03-05 09:53:00
4:53 AM,23.0,19.9,88,30.05,1.0,East,6.9,-,0.02,Snow,Light Snow,80,2013-03-05 10:53:00
5:49 AM,23.0,19.4,86,29.98,0.8,ENE,6.9,-,0.02,Snow,Light Snow,70,2013-03-05 11:49:00
5:53 AM,23.0,19.9,88,30.06,0.8,ENE,8.1,-,0.03,Snow,Light Snow,60,2013-03-05 11:53:00
6:04 AM,23.0,19.4,86,29.98,1.0,ENE,8.1,-,0.00,Snow,Light Snow,60,2013-03-05 12:04:00
6:13 AM,23.0,19.4,86,29.99,1.2,ENE,9.2,-,0.01,Snow,Light Snow,60,2013-03-05 12:13:00
6:53 AM,23.0,19.0,85,30.07,1.0,ENE,8.1,-,0.03,Snow,Light Snow,70,2013-03-05 12:53:00
7:04 AM,23.0,19.4,86,30.00,0.8,ENE,5.8,-,0.00,Snow,Light Snow,60,2013-03-05 13:04:00
7:29 AM,23.0,19.4,86,30.01,1.0,ENE,6.9,-,0.01,Snow,Light Snow,60,2013-03-05 13:29:00
7:53 AM,23.0,19.9,88,30.09,1.2,ENE,6.9,-,0.02,Snow,Light Snow,60,2013-03-05 13:53:00
8:44 AM,24.8,19.4,80,30.04,0.8,NE,5.8,-,0.01,Snow,Light Snow,40,2013-03-05 14:44:00
8:53 AM,24.1,19.9,84,30.11,1.0,NE,9.2,-,0.01,Snow,Light Snow,50,2013-03-05 14:53:00
9:14 AM,24.8,19.4,80,30.05,0.5,NNE,8.1,-,0.01,Fog-Snow,Light Snow,30,2013-03-05 15:14:00
9:30 AM,24.8,19.4,80,30.05,0.5,NE,8.1,-,0.02,Fog-Snow,Light Snow,40,2013-03-05 15:30:00
9:43 AM,24.8,21.2,86,30.06,0.8,NNE,5.8,-,0.03,Snow,Light Snow,30,2013-03-05 15:43:00
9:53 AM,25.0,21.0,85,30.14,0.8,NNE,6.9,-,0.03,Snow,Light Snow,30,2013-03-05 15:53:00
10:05 AM,24.8,21.2,86,30.07,0.8,NE,8.1,-,0.00,Snow,Light Snow,50,2013-03-05 16:05:00
10:31 AM,24.8,21.2,86,30.07,1.0,NE,10.4,-,0.02,Snow,Light Snow,40,2013-03-05 16:31:00
10:53 AM,26.1,21.0,81,30.15,0.8,NE,9.2,-,0.02,Snow,Light Snow,40,2013-03-05 16:53:00
11:03 AM,26.6,21.2,80,30.08,0.8,NNE,6.9,-,0.01,Snow,Light Snow,30,2013-03-05 17:03:00
11:12 AM,26.6,21.2,80,30.08,1.0,NNE,8.1,-,0.01,Snow,Light Snow,30,2013-03-05 17:12:00
11:42 AM,26.6,21.2,80,30.09,2.5,NE,6.9,-,0.01,Snow,Light Snow,40,2013-03-05 17:42:00
11:53 AM,27.0,21.0,78,30.17,2.5,NNE,6.9,-,0.01,Snow,Light Snow,30,2013-03-05 17:53:00
12:53 PM,28.0,21.0,75,30.17,3.0,North,6.9,-,0.04,Snow,Light Snow,10,2013-03-05 18:53:00
1:25 PM,28.4,21.2,74,30.09,7.0,North,10.4,-,0.00,,Overcast,360,2013-03-05 19:25:00
1:32 PM,28.4,21.2,74,30.09,4.0,North,10.4,-,0.00,,Haze,360,2013-03-05 19:32:00
1:48 PM,28.4,23.0,80,30.10,2.0,NNW,10.4,-,0.00,Snow,Light Snow,340,2013-03-05 19:48:00
1:53 PM,28.9,23.0,78,30.17,1.5,North,10.4,-,0.00,Snow,Light Snow,360,2013-03-05 19:53:00
2:08 PM,28.4,23.0,80,30.10,2.0,North,9.2,-,0.00,Snow,Light Snow,10,2013-03-05 20:08:00
2:17 PM,28.4,21.2,74,30.11,3.0,North,11.5,-,0.00,Snow,Light Snow,360,2013-03-05 20:17:00
2:31 PM,28.4,21.2,74,30.12,6.0,North,9.2,-,0.00,,Haze,360,2013-03-05 20:31:00
2:51 PM,28.4,19.4,69,30.12,9.0,North,11.5,-,0.00,,Overcast,10,2013-03-05 20:51:00
2:53 PM,28.9,19.9,69,30.19,10.0,North,11.5,-,0.00,,Overcast,10,2013-03-05 20:53:00
3:26 PM,28.4,21.2,74,30.13,9.0,North,10.4,-,0.00,Snow,Light Snow,10,2013-03-05 21:26:00
3:53 PM,28.0,21.0,75,30.23,3.0,NNE,10.4,-,0.00,Snow,Light Snow,20,2013-03-05 21:53:00
4:10 PM,28.4,21.2,74,30.16,6.0,North,8.1,-,0.00,,Haze,360,2013-03-05 22:10:00
4:53 PM,28.0,21.0,75,30.25,7.0,North,9.2,-,0.00,Snow,Light Snow,10,2013-03-05 22:53:00
5:08 PM,28.4,21.2,74,30.19,2.5,North,8.1,-,0.00,Snow,Light Snow,10,2013-03-05 23:08:00
5:24 PM,26.6,21.2,80,30.19,3.0,North,9.2,-,0.00,Snow,Light Snow,350,2013-03-05 23:24:00
5:32 PM,26.6,21.2,80,30.20,2.5,NNW,8.1,-,0.00,Snow,Light Snow,340,2013-03-05 23:32:00
5:46 PM,26.6,21.2,80,30.20,1.5,North,9.2,-,0.00,Snow,Light Snow,350,2013-03-05 23:46:00
5:53 PM,27.0,21.9,81,30.28,1.5,North,8.1,-,0.00,Snow,Light Snow,10,2013-03-05 23:53:00
6:11 PM,26.6,21.2,80,30.21,3.0,North,6.9,-,0.01,Snow,Light Snow,360,2013-03-06 00:11:00
6:34 PM,26.6,21.2,80,30.22,10.0,North,6.9,-,0.01,,Overcast,360,2013-03-06 00:34:00
6:53 PM,26.1,21.9,84,30.30,9.0,North,8.1,-,0.01,,Mostly Cloudy,10,2013-03-06 00:53:00
7:53 PM,24.1,19.0,81,30.32,9.0,North,3.5,-,N/A,,Overcast,350,2013-03-06 01:53:00
8:53 PM,24.1,19.0,81,30.34,10.0,North,5.8,-,N/A,,Overcast,350,2013-03-06 02:53:00
9:09 PM,24.8,19.4,80,30.27,2.5,NNE,4.6,-,0.00,Snow,Light Snow,20,2013-03-06 03:09:00
9:11 PM,24.8,19.4,80,30.27,3.0,NNE,4.6,-,0.00,Snow,Light Snow,20,2013-03-06 03:11:00
9:42 PM,21.2,17.6,86,30.27,10.0,North,6.9,-,0.00,,Scattered Clouds,360,2013-03-06 03:42:00
9:53 PM,21.0,16.0,81,30.35,10.0,North,6.9,-,0.00,,Partly Cloudy,10,2013-03-06 03:53:00
10:33 PM,19.4,15.8,86,30.29,10.0,NNW,3.5,-,N/A,,Mostly Cloudy,340,2013-03-06 04:33:00
10:53 PM,19.9,16.0,85,30.37,10.0,North,4.6,-,N/A,,Overcast,10,2013-03-06 04:53:00
11:53 PM,19.0,15.1,85,30.38,10.0,North,3.5,-,N/A,,Overcast,360,2013-03-06 05:53:00